Find SITRO-AIS-61

NORAD ID: 67297 Int'l Des: 2025-313 Owner: SITRO Country: RU Constellation: sitronics operational
LEOCIRCULARRETROGRADESSO

实时位置

正在加载3D地球...

关于 SITRO-AIS-61

正在加载描述...

即将过境

Passes for default location (London). Set your location on the main map for personalized predictions.

高度历史

Loading altitude history...

两行轨道根数

1 67297U 25313BB 26107.15513664 .00006571 00000-0 27332-3 0 9991
2 67297 97.3973 183.0645 0008183 203.8086 156.2773 15.24080827 16684
Epoch: Apr 17, 2026 • Age: 16 hours

当前状态

高度 502.1 km
速度 7.61 km/s
星下点 -2.14°S, 45.98°E
发射日期 Dec 28, 2025
运行时间 0.3 years
类型 other

技术详情

分类 Payload
质量 3.00 kg
干质量 3.00 kg
总质量 3.00 kg
长度 0.30 m
直径 0.10 m
跨度 0.30 m
形状 Box
制造商 SPUT
平台类型 Cubesat 3U
阶段状态 In Orbit
所有者/国家 SITRO/RU

Most Searched